This is the latest recevied weather packets stored in our database for station/object EA6MI-10. If no packets are shown the sender has not sent any weather packets the latest 10 day(s).
| Time | Temp. | Humidity | Pressure | Rain* | Wind** | Luminosity | Snow |
|---|---|---|---|---|---|---|---|
| 1777998305 | 24.44° C | 55% | 1004.4 hPa | - | - | - | - |
| 1777997405 | 24.44° C | 55% | 1004.3 hPa | - | - | - | - |
| 1777996505 | 25° C | 56% | 1004.2 hPa | - | - | - | - |
| 1777995605 | 25° C | 56% | 1004.3 hPa | - | - | - | - |
| 1777994705 | 25° C | 56% | 1004.2 hPa | - | - | - | - |
| 1777993804 | 25° C | 56% | 1004.3 hPa | - | - | - | - |
| 1777992904 | 25° C | 57% | 1004.3 hPa | - | - | - | - |
| 1777992004 | 25° C | 58% | 1004.3 hPa | - | - | - | - |
| 1777991104 | 24.44° C | 57% | 1004.2 hPa | - | - | - | - |
| 1777989304 | 24.44° C | 57% | 1004.4 hPa | - | - | - | - |
| 1777988404 | 23.89° C | 58% | 1004.6 hPa | - | - | - | - |
| 1777987504 | 23.89° C | 58% | 1004.6 hPa | - | - | - | - |
| 1777986603 | 23.89° C | 60% | 1004.7 hPa | - | - | - | - |
| 1777985703 | 23.33° C | 59% | 1004.9 hPa | - | - | - | - |
| 1777984803 | 23.33° C | 60% | 1005.3 hPa | - | - | - | - |
| 1777983903 | 23.33° C | 60% | 1005.2 hPa | - | - | - | - |
| 1777983003 | 23.33° C | 60% | 1005.4 hPa | - | - | - | - |
| 1777982103 | 22.78° C | 61% | 1005.4 hPa | - | - | - | - |
| 1777981203 | 22.78° C | 61% | 1005.4 hPa | - | - | - | - |
| 1777980303 | 22.78° C | 61% | 1005.7 hPa | - | - | - | - |
| 1777979402 | 22.22° C | 62% | 1005.8 hPa | - | - | - | - |
| 1777978502 | 22.22° C | 62% | 1005.8 hPa | - | - | - | - |
| 1777977602 | 21.67° C | 61% | 1005.7 hPa | - | - | - | - |
| 1777976702 | 21.67° C | 61% | 1005.7 hPa | - | - | - | - |
| 1777975802 | 21.11° C | 61% | 1005.8 hPa | - | - | - | - |
* Rain since midnight (hover to see other rain measurements)
** Current wind speed in m/s (hover to see current wind gust speed)